Погода в Ланьшинском

Россия / Тульская область     54°49′49″N   37°15′55″E
темп.,
°C
ветер,
м/с
пор.,
м/с
влажн.,
%
обл.,
%
осадки,
мм/ч
давл.,
гПа
погр.,
м
23 января, сб
сб2300:00+1ююз51098100 0.1 1011332
03:00+1ююз51197100 0.2 1011426
06:00+1ююз51196100 0.4 1010376
09:00+1ююз71394100 0.8 1011408
12:00+1ююз6119799 0.0 1012450
15:00+1юз6119999 0.0 1013463
18:00+1ююз51098100 0.0 1013393
21:00+1ююз3898100 0.0 1013284
24 января, вс
вс2400:00+1ю3798100 0.0 1014244
03:00+1ю2699100 0.0 1014166
06:00+1ю3799100 0.0 1013203
09:00+1ююв3899100 0.0 1014229
12:00+1ююв49100100 0.0 1013257
15:00+1ю410100100 0.0 1013254
18:00+1ююв61198100 0.0 1013345
21:00+1ю61498100 0.0 1013392
25 января, пн
пн2500:00+2ююв71585100 0.0 1012418
03:000ююв71685100 0.0 1012463
06:000ююв61392100 0.1 1012468
09:000ююв61394100 0.1 1012459
12:00+1ююв51199100 0.0 1012393
15:00+1ююв510100100 0.4 1012311
18:00+1ююв4999100 0.5 1013264
21:00+1ююв4998100 0.5 1013270
26 января, вт
вт2600:00+1юв51197100 0.0 1013377
03:00+1юв51198100 0.1 1012409
06:00+1юв71396100 0.4 1010530
09:00+1вюв71497100 0.7 1009460
12:00+1юв91697100 0.8 1008798
15:00+1юв7139697 0.8 1006663
18:00+1вюв71395100 0.0 1004636
21:00+1юв81498100 3.3 1000702
27 января, ср
ср2700:000ю71390100 2.3 999859
03:00−1ююв8159391 2.5 1000944
06:00−2ю91592100 0.3 1000989
09:00−2ю91591100 0.5 1000943
12:00−1ю91594100 0.6 10011097
15:00−1ююз101691100 1.3 10021114
18:00−1ююз91590100 0.2 1003852
21:00−1ююз7138898 0.3 1005906